"2010-02-19 00:00:00",1693719,15.16,47.73,3.529,1.13,3.528,98.26501,-5.12,-3.814,96.8,0,109.3,13.69,-4.39,9.7
"2010-02-19 00:00:30",1693720,15.62,47.17,3.869,0.723,3.822,98.24631,-5.167,-3.822,96.8,0,109.3,13.69,-4.43,9.2
"2010-02-19 00:01:00",1693721,16.03,48.47,3.2,0.929,3.621,98.23636,-5.193,-3.856,96.8,0,109.3,13.69,-4.46,10.5
"2010-02-19 00:01:30",1693722,16.57,49.87,3.533,0.672,3.893,98.23325,-5.201,-3.856,96.8,0,109.3,13.69,-4.47,11.9
"2010-02-19 00:02:00",1693723,14.92,47.88,2.956,0.912,3.592,98.23268,-5.202,-3.878,96.8,0,109.3,13.69,-4.47,9.9
"2010-02-19 00:02:30",1693724,15.75,47.86,3.718,1.031,3.794,98.2338,-5.199,-3.862,96.8,0,109.3,13.69,-4.47,9.9
"2010-02-19 00:03:00",1693725,15.88,47.21,3.612,1.197,3.772,98.23574,-5.194,-3.873,96.8,0,109.3,13.7,-4.46,9.2
"2010-02-19 00:03:30",1693726,16.58,49,2.776,0.804,3.791,98.23658,-5.192,-3.9,96.8,0,109.3,13.7,-4.46,11.0
"2010-02-19 00:04:00",1693727,16.56,49.38,2.897,0.798,3.77,98.23742,-5.19,-3.892,96.8,0,109.3,13.7,-4.46,11.4
"2010-02-19 00:04:30",1693728,16.29,46.98,3.045,0.828,3.708,98.23286,-5.202,-3.911,96.8,0,109.3,13.7,-4.47,9.0
"2010-02-19 00:05:00",1693729,16.55,47.77,2.933,0.825,3.717,98.21555,-5.246,-3.924,96.8,0,109.3,13.7,-4.51,9.8
"2010-02-19 00:05:30",1693730,16.61,49.85,2.653,0.719,3.894,98.2073,-5.267,-3.947,96.8,0,109.3,13.7,-4.53,11.8
"2010-02-19 00:06:00",1693731,16.69,48.94,2.814,0.734,3.556,98.20757,-5.266,-3.959,96.8,0,109.3,13.7,-4.53,10.9
"2010-02-19 00:06:30",1693732,16.31,49.17,3.005,0.862,3.605,98.2073,-5.267,-3.956,96.8,0,109.3,13.7,-4.53,11.2
"2010-02-19 00:07:00",1693733,16.41,48.04,3.173,0.631,3.672,98.21064,-5.258,-3.981,96.8,0,109.3,13.7,-4.52,10.0
"2010-02-19 00:07:30",1693734,16.57,48.03,2.673,0.676,3.757,98.21175,-5.255,-3.988,96.8,0,109.3,13.7,-4.52,10.0
"2010-02-19 00:08:00",1693735,16.56,48.02,3.6,0.74,3.686,98.20833,-5.264,-4.009,96.8,0,109.3,13.7,-4.53,10.0
"2010-02-19 00:08:30",1693736,16.63,48.65,2.854,1.263,3.666,98.20235,-5.279,-4.005,96.8,0,109.3,13.7,-4.55,10.7
"2010-02-19 00:09:00",1693737,15.29,47.15,4.475,1.126,3.74,98.19581,-5.296,-4.019,96.8,0,109.3,13.7,-4.56,9.2
"2010-02-19 00:09:30",1693738,15.79,47.01,2.217,1.098,3.736,98.1992,-5.287,-4.022,96.8,0,109.2,13.7,-4.55,9.0
"2010-02-19 00:10:00",1693739,15.58,47.61,3.316,1.502,3.673,98.20145,-5.282,-4.028,96.8,0,109.3,13.7,-4.55,9.6
"2010-02-19 00:10:30",1693740,14.45,46.18,4.436,2.042,3.66,98.20541,-5.271,-4.043,96.8,0,109.2,13.71,-4.54,8.2
"2010-02-19 00:11:00",1693741,14.06,46.25,3.663,0.93,3.625,98.21502,-5.247,-4.025,96.8,0,109.3,13.71,-4.51,8.2
"2010-02-19 00:11:30",1693742,13.64,48.33,2.755,0.948,3.692,98.21983,-5.235,-4.033,96.8,0,109.3,13.71,-4.50,10.3
"2010-02-19 00:12:00",1693743,10.89,44.8,3.942,1.285,3.632,98.22149,-5.23,-4.021,96.9,0,109.2,13.71,-4.50,6.8
"2010-02-19 00:12:30",1693744,13.99,48.99,3.463,1.226,3.431,98.22178,-5.23,-4.011,96.9,0,109.3,13.71,-4.50,11.0
"2010-02-19 00:13:00",1693745,14.47,48.96,3.72,0.806,3.446,98.22149,-5.23,-4.003,96.9,0,109.3,13.71,-4.50,11.0
"2010-02-19 00:13:30",1693746,14.91,50.5,3.704,0.825,3.754,98.22261,-5.228,-3.999,96.9,0,109.3,13.71,-4.49,12.5
"2010-02-19 00:14:00",1693747,12.53,47.73,4.086,1.332,3.431,98.22261,-5.228,-3.993,96.9,0,109.3,13.71,-4.49,9.7
"2010-02-19 00:14:30",1693748,13.31,50.76,3.405,0.996,3.409,98.224,-5.224,-3.992,96.9,0,109.2,13.7,-4.49,12.8
"2010-02-19 00:15:00",1693749,13.72,48.56,4.264,1.148,3.424,98.22431,-5.223,-4.003,96.9,0,109.2,13.7,-4.49,10.6
"2010-02-19 00:15:30",1693750,13.41,49.19,4.211,1.188,3.563,98.22401,-5.224,-3.965,96.9,0,109.2,13.7,-4.49,11.2
"2010-02-19 00:16:00",1693751,14.02,49.14,4.096,1.143,3.352,98.22346,-5.226,-3.984,97,0,109.2,13.7,-4.49,11.1
"2010-02-19 00:16:30",1693752,12.9,46.11,4.24,1.842,3.381,98.22317,-5.226,-3.976,97,0,109.3,13.7,-4.49,8.1
"2010-02-19 00:17:00",1693753,14.87,46.79,3.267,0.868,3.432,98.22372,-5.225,-3.972,96.9,0,109.3,13.7,-4.49,8.8
"2010-02-19 00:17:30",1693754,15.03,48.83,3.161,1.046,3.63,98.22261,-5.228,-3.971,96.9,0,109.3,13.7,-4.49,10.8
"2010-02-19 00:18:00",1693755,14.48,45.75,3.037,1.52,3.404,98.22261,-5.228,-3.973,96.9,0,109.3,13.7,-4.49,7.8
"2010-02-19 00:18:30",1693756,15.44,49.6,2.882,0.828,3.432,98.22261,-5.228,-3.974,96.9,0,109.3,13.7,-4.49,11.6
"2010-02-19 00:19:00",1693757,15.35,50.02,3.568,1.098,3.433,98.22259,-5.228,-3.999,96.9,0,109.3,13.7,-4.49,12.0
"2010-02-19 00:19:30",1693758,14.84,47.59,3.746,1.591,3.552,98.22147,-5.231,-4.008,96.9,0,109.3,13.71,-4.50,9.6
"2010-02-19 00:20:00",1693759,14.64,46.86,3.463,1.431,3.472,98.21892,-5.237,-4.013,96.9,0,109.3,13.71,-4.50,8.9
"2010-02-19 00:20:30",1693760,14.84,49.94,3.742,0.957,3.413,98.20843,-5.264,-4.009,96.9,0,109.3,13.71,-4.53,11.9
"2010-02-19 00:21:00",1693761,14.9,49.19,2.282,0.979,3.393,98.20927,-5.262,-4.019,96.9,0,109.3,13.71,-4.53,11.2
"2010-02-19 00:21:30",1693762,13.78,49.45,3.649,1.267,3.523,98.21068,-5.258,-4.016,96.9,0,109.3,13.71,-4.52,11.5
"2010-02-19 00:22:00",1693763,13.61,48.34,3.902,1.016,3.412,98.21465,-5.248,-4.037,96.9,0,109.3,13.71,-4.51,10.3
"2010-02-19 00:22:30",1693764,14.89,48.92,2.973,1.007,3.258,98.21493,-5.247,-4.014,96.9,0,109.3,13.72,-4.51,10.9
"2010-02-19 00:23:00",1693765,15.27,49.91,3.639,1.015,3.358,98.20756,-5.266,-4.009,96.9,0,109.2,13.72,-4.53,11.9
"2010-02-19 00:23:30",1693766,15.77,51,3.192,0.632,3.505,98.19873,-5.288,-4.028,96.9,0,109.2,13.72,-4.56,13.0
"2010-02-19 00:24:00",1693767,15.95,50.57,4.035,0.659,3.494,98.19112,-5.308,-4.034,96.9,0,109.3,13.72,-4.57,12.6
"2010-02-19 00:24:30",1693768,15.62,49.63,3.091,0.841,3.344,98.19193,-5.306,-4.039,96.9,0,109.3,13.72,-4.57,11.6
"2010-02-19 00:25:00",1693769,15.86,50.23,2.868,0.899,3.358,98.19221,-5.305,-4.05,96.9,0,109.2,13.72,-4.57,12.2
"2010-02-19 00:25:30",1693770,15.82,51.37,2.415,0.789,3.523,98.19249,-5.304,-4.052,96.9,0,109.3,13.72,-4.57,13.4
"2010-02-19 00:26:00",1693771,13.94,52.49,3.271,1.316,3.375,98.19471,-5.299,-4.067,96.9,0,109.3,13.72,-4.57,14.5
"2010-02-19 00:26:30",1693772,13.07,49.15,4.825,1.162,3.333,98.19416,-5.3,-4.075,96.9,0,109.3,13.72,-4.57,11.2
"2010-02-19 00:27:00",1693773,15.97,51.53,3.984,0.751,3.33,98.1936,-5.302,-4.079,96.9,0,109.3,13.72,-4.57,13.5
"2010-02-19 00:27:30",1693774,16.25,51.74,3.563,0.572,3.514,98.19416,-5.3,-4.066,96.9,0,109.3,13.72,-4.57,13.7
"2010-02-19 00:28:00",1693775,15.72,50.31,3.927,0.658,3.335,98.19386,-5.301,-4.071,96.9,0,109.3,13.72,-4.57,12.3
"2010-02-19 00:28:30",1693776,16.01,49.71,4.117,0.767,3.375,98.18705,-5.318,-4.065,96.9,0,109.3,13.71,-4.58,11.7
"2010-02-19 00:29:00",1693777,14.78,52.47,4.023,0.697,3.442,98.17231,-5.356,-4.075,96.9,0,109.3,13.71,-4.62,14.5
"2010-02-19 00:29:30",1693778,15.45,49.59,3.905,1.207,3.599,98.16322,-5.379,-4.094,96.9,0,109.3,13.71,-4.65,11.6
"2010-02-19 00:30:00",1693779,15.99,49.54,3.894,0.58,3.484,98.16264,-5.38,-4.102,96.9,0,109.3,13.71,-4.65,11.5
"2010-02-19 00:30:30",1693780,16.16,50.54,3.748,0.517,3.554,98.16236,-5.381,-4.089,96.9,0,109.3,13.71,-4.65,12.5
"2010-02-19 00:31:00",1693781,16.17,49.72,3.892,0.607,3.515,98.16264,-5.38,-4.111,96.8,0,109.3,13.71,-4.65,11.7
"2010-02-19 00:31:30",1693782,15.5,47.93,3.296,0.567,3.442,98.16264,-5.38,-4.112,96.9,0,109.3,13.71,-4.65,9.9
"2010-02-19 00:32:00",1693783,14.63,46.32,3.723,0.853,3.364,98.16209,-5.382,-4.14,96.9,0,109.3,13.71,-4.65,8.3
"2010-02-19 00:32:30",1693784,14.17,45.86,3.893,0.929,3.269,98.16264,-5.38,-4.133,96.9,0,109.3,13.71,-4.65,7.9
"2010-02-19 00:33:00",1693785,13.04,44.02,4.052,1.28,3.346,98.16264,-5.38,-4.14,96.8,0,109.3,13.71,-4.65,6.0
"2010-02-19 00:33:30",1693786,14.17,45.11,3.014,1.337,3.102,98.16236,-5.381,-4.146,96.9,0,109.3,13.71,-4.65,7.1
"2010-02-19 00:34:00",1693787,15.08,46.32,3.175,0.686,2.999,98.16264,-5.38,-4.149,96.9,0,109.3,13.71,-4.65,8.3
"2010-02-19 00:34:30",1693788,15.32,46.56,3.704,0.564,3.064,98.16093,-5.385,-4.15,96.9,0,109.3,13.71,-4.65,8.6
"2010-02-19 00:35:00",1693789,14.76,47.08,3.654,0.504,3.057,98.13882,-5.441,-4.166,96.8,0,109.3,13.71,-4.71,9.1
"2010-02-19 00:35:30",1693790,14.87,47.4,3.651,0.353,3.258,98.12918,-5.465,-4.164,96.8,0,109.3,13.72,-4.73,9.4
"2010-02-19 00:36:00",1693791,14.82,46.98,3.795,0.655,2.874,98.12862,-5.467,-4.19,96.8,0,109.3,13.72,-4.73,9.0
"2010-02-19 00:36:30",1693792,14.86,48.15,3.679,0.546,2.937,98.12862,-5.467,-4.189,96.8,0,109.3,13.72,-4.73,10.2
"2010-02-19 00:37:00",1693793,15.11,49.61,3.692,0.734,2.859,98.12862,-5.467,-4.195,96.8,0,109.3,13.72,-4.73,11.6
"2010-02-19 00:37:30",1693794,15.73,49.86,2.85,0.586,3.076,98.12862,-5.467,-4.209,96.8,0,109.3,13.72,-4.73,11.9
"2010-02-19 00:38:00",1693795,15.76,49.88,3.814,0.663,2.984,98.11557,-5.5,-4.231,96.8,0,109.3,13.72,-4.77,11.9
"2010-02-19 00:38:30",1693796,16.04,48.91,3.662,0.692,3.13,98.10423,-5.529,-4.229,96.8,0,109.3,13.72,-4.80,10.9
"2010-02-19 00:39:00",1693797,16.89,50.25,3.284,0.634,3.062,98.09629,-5.549,-4.242,96.8,0,109.2,13.72,-4.82,12.2
"2010-02-19 00:39:30",1693798,16.93,51.77,2.38,0.588,3.174,98.09459,-5.554,-4.274,96.7,0,109.3,13.72,-4.82,13.8
"2010-02-19 00:40:00",1693799,16.68,50.95,3.223,0.605,3.139,98.09373,-5.556,-4.289,96.7,0,109.3,13.72,-4.82,13.0
"2010-02-19 00:40:30",1693800,16.34,51.13,3.174,0.636,3.046,98.08212,-5.585,-4.293,96.7,0,109.3,13.72,-4.85,13.1
"2010-02-19 00:41:00",1693801,16.06,49.21,2.912,0.563,3.086,98.07133,-5.613,-4.327,96.7,0,109.3,13.72,-4.88,11.2
"2010-02-19 00:41:30",1693802,15.78,50.08,2.657,0.745,3.127,98.06424,-5.631,-4.327,96.7,0,109.2,13.72,-4.90,12.1
"2010-02-19 00:42:00",1693803,15.6,50.33,3.477,0.722,3.058,98.06084,-5.639,-4.341,96.7,0,109.3,13.72,-4.91,12.3
"2010-02-19 00:42:30",1693804,14.9,49.42,3.55,1.034,3.09,98.06055,-5.64,-4.341,96.7,0,109.3,13.73,-4.91,11.4
"2010-02-19 00:43:00",1693805,15.7,50.73,3.608,0.63,3.33,98.06055,-5.64,-4.365,96.7,0,109.3,13.73,-4.91,12.7
"2010-02-19 00:43:30",1693806,15.33,50.65,3.945,0.717,3.364,98.06055,-5.64,-4.339,96.7,0,109.3,13.73,-4.91,12.7
"2010-02-19 00:44:00",1693807,15.26,49.53,4.575,0.516,3.073,98.06055,-5.64,-4.373,96.7,0,109.3,13.73,-4.91,11.5
"2010-02-19 00:44:30",1693808,13.8,48.91,4.599,0.711,3.096,98.06055,-5.64,-4.352,96.7,0,109.2,13.73,-4.91,10.9
"2010-02-19 00:45:00",1693809,13.36,51.38,4.14,0.601,2.96,98.06055,-5.64,-4.362,96.7,0,109.3,13.73,-4.91,13.4
"2010-02-19 00:45:30",1693810,12.46,55.96,3.8,0.608,3.033,98.06055,-5.64,-4.369,96.7,0,109.3,13.73,-4.91,18.0
"2010-02-19 00:46:00",1693811,11.88,51.33,4.754,0.577,2.736,98.06055,-5.64,-4.371,96.7,0,109.3,13.73,-4.91,13.3
"2010-02-19 00:46:30",1693812,12.67,54.08,5.044,0.519,2.751,98.06055,-5.64,-4.347,96.7,0,109.2,13.73,-4.91,16.1
"2010-02-19 00:47:00",1693813,12.81,49.26,4.35,0.695,2.67,98.06198,-5.637,-4.352,96.7,0,109.2,13.73,-4.90,11.3
"2010-02-19 00:47:30",1693814,12.83,49.98,3.381,0.856,2.565,98.06169,-5.637,-4.35,96.7,0,109.2,13.72,-4.91,12.0
"2010-02-19 00:48:00",1693815,12.28,48.8,4.655,0.721,2.437,98.06339,-5.633,-4.363,96.7,0,109.3,13.72,-4.90,10.8
"2010-02-19 00:48:30",1693816,11.22,52.09,4.971,0.775,2.385,98.06481,-5.629,-4.347,96.7,0,109.2,13.72,-4.90,14.1
"2010-02-19 00:49:00",1693817,10.74,51.64,4.453,0.54,2.263,98.06821,-5.621,-4.345,96.7,0,109.2,13.72,-4.89,13.6
"2010-02-19 00:49:30",1693818,10.94,51.65,4.436,1.01,2.238,98.06935,-5.618,-4.34,96.7,0,109.2,13.72,-4.89,13.7
"2010-02-19 00:50:00",1693819,11.34,48.18,3.807,0.84,2.124,98.07446,-5.605,-4.343,96.7,0,109.3,13.72,-4.87,10.2
"2010-02-19 00:50:30",1693820,11.91,50.25,4.447,0.626,2.167,98.0753,-5.603,-4.333,96.8,0,109.2,13.72,-4.87,12.2
"2010-02-19 00:51:00",1693821,11.73,50.47,4.168,1.041,2.117,98.07644,-5.6,-4.337,96.8,0,109.2,13.72,-4.87,12.5
"2010-02-19 00:51:30",1693822,11.54,49.95,4.127,0.534,2.237,98.07587,-5.601,-4.326,96.8,0,109.2,13.72,-4.87,12.0
"2010-02-19 00:52:00",1693823,10.14,42.66,4.228,1.096,2.279,98.07643,-5.6,-4.334,96.8,0,109.2,13.72,-4.87,4.7
"2010-02-19 00:52:30",1693824,10.94,46.56,5.641,1.004,2.202,98.07614,-5.6,-4.297,96.8,0,109.2,13.73,-4.87,8.6
"2010-02-19 00:53:00",1693825,11.5,49.06,5.01,0.742,2.271,98.07073,-5.614,-4.303,96.8,0,109.2,13.73,-4.88,11.1
"2010-02-19 00:53:30",1693826,10.94,46.28,4.081,1.18,2.434,98.06933,-5.618,-4.33,96.7,0,109.2,13.73,-4.89,8.3
"2010-02-19 00:54:00",1693827,11.98,47.82,4.923,0.996,2.394,98.06368,-5.632,-4.34,96.8,0,109.2,13.73,-4.90,9.8
"2010-02-19 00:54:30",1693828,11.56,46.58,4.762,1.014,2.316,98.0614,-5.638,-4.325,96.8,0,109.2,13.73,-4.91,8.6
"2010-02-19 00:55:00",1693829,10.54,51.01,4.588,1.053,2.165,98.06167,-5.637,-4.336,96.8,0,109.2,13.73,-4.91,13.0
"2010-02-19 00:55:30",1693830,9.13,42.67,5.268,0.816,2.325,98.06167,-5.637,-4.337,96.7,0,109.2,13.73,-4.91,4.7
"2010-02-19 00:56:00",1693831,9.54,47.56,5.38,0.746,2.159,98.06112,-5.639,-4.34,96.7,0,109.3,13.73,-4.91,9.6
"2010-02-19 00:56:30",1693832,11.02,44.21,5.53,1.734,2.011,98.06167,-5.637,-4.331,96.7,0,109.2,13.73,-4.91,6.2
"2010-02-19 00:57:00",1693833,13.21,49.17,4.448,0.813,1.978,98.06251,-5.635,-4.347,96.7,0,109.2,13.73,-4.90,11.2
"2010-02-19 00:57:30",1693834,13.24,49.79,4.258,0.869,2.093,98.06026,-5.641,-4.351,96.7,0,109.2,13.73,-4.91,11.8
"2010-02-19 00:58:00",1693835,14.27,49.22,4.405,0.911,2.389,98.04211,-5.687,-4.374,96.7,0,109.3,13.73,-4.96,11.2
"2010-02-19 00:58:30",1693836,14.91,50.13,3.35,0.682,2.272,98.02991,-5.718,-4.386,96.7,0,109.2,13.73,-4.99,12.1
"2010-02-19 00:59:00",1693837,15.18,49.75,3.4,0.688,2.37,98.02509,-5.73,-4.393,96.7,0,109.2,13.73,-5.00,11.8
"2010-02-19 00:59:30",1693838,15.09,48.9,3.229,0.418,2.639,97.99703,-5.802,-4.443,96.6,0,109.2,13.73,-5.07,10.9
"2010-02-19 01:00:00",1693839,15.22,50.32,3.733,0.551,2.644,97.99334,-5.811,-4.455,96.6,0,109.2,13.73,-5.08,12.3
"2010-02-19 01:00:30",1693840,14.84,49.7,3.696,0.557,2.741,97.98512,-5.832,-4.466,96.6,0,109.2,13.73,-5.10,11.7
"2010-02-19 01:01:00",1693841,14.79,49.96,3.805,0.561,2.857,97.9667,-5.879,-4.487,96.6,0,109.2,13.73,-5.15,12.0
"2010-02-19 01:01:30",1693842,15.3,50.21,3.191,0.65,3.027,97.95959,-5.897,-4.531,96.5,0,109.2,13.73,-5.17,12.2
"2010-02-19 01:02:00",1693843,15.5,49.45,4.194,0.637,2.854,97.95959,-5.897,-4.561,96.5,0,109.2,13.73,-5.17,11.5
"2010-02-19 01:02:30",1693844,15.8,50.22,3.79,0.65,2.889,97.96071,-5.894,-4.561,96.5,0,109.2,13.73,-5.16,12.2
"2010-02-19 01:03:00",1693845,16.3,49.78,3.773,0.555,2.786,97.94769,-5.927,-4.588,96.5,0,109.2,13.73,-5.20,11.8
"2010-02-19 01:03:30",1693846,16.31,49.19,3.552,0.575,3.08,97.93913,-5.949,-4.603,96.5,0,109.2,13.73,-5.22,11.2
"2010-02-19 01:04:00",1693847,16.4,48.84,3.436,0.54,2.854,97.93655,-5.956,-4.615,96.5,0,109.2,13.73,-5.22,10.8
"2010-02-19 01:04:30",1693848,16,48.99,3.816,0.577,2.895,97.93711,-5.954,-4.621,96.5,0,109.2,13.73,-5.22,11.0
"2010-02-19 01:05:00",1693849,16.02,48.56,3.763,0.637,3.034,97.93312,-5.965,-4.639,96.5,0,109.2,13.73,-5.23,10.6
"2010-02-19 01:05:30",1693850,15.56,50.07,3.029,0.595,3.008,97.94234,-5.941,-4.625,96.5,0,109.2,13.73,-5.21,12.1
"2010-02-19 01:06:00",1693851,15.16,49.74,3.658,0.542,3.009,97.93983,-5.947,-4.65,96.5,0,109.3,13.73,-5.22,11.7
"2010-02-19 01:06:30",1693852,15.09,50.38,3.597,0.598,2.862,97.9429,-5.94,-4.648,96.5,0,109.2,13.73,-5.21,12.4
"2010-02-19 01:07:00",1693853,14.57,50.81,3.89,0.554,2.975,97.94738,-5.928,-4.677,96.5,0,109.2,13.73,-5.20,12.8
"2010-02-19 01:07:30",1693854,14.76,50.2,3.631,0.376,3.038,97.94823,-5.926,-4.662,96.5,0,109.2,13.73,-5.19,12.2
"2010-02-19 01:08:00",1693855,14.79,50.53,3.778,0.529,2.781,97.95109,-5.919,-4.642,96.5,0,109.2,13.73,-5.19,12.5
"2010-02-19 01:08:30",1693856,14.73,50.11,4.072,0.553,2.795,97.9567,-5.905,-4.623,96.5,0,109.2,13.73,-5.17,12.1
"2010-02-19 01:09:00",1693857,15.06,50.46,4.112,0.419,2.623,97.95923,-5.898,-4.641,96.5,0,109.2,13.73,-5.17,12.5
"2010-02-19 01:09:30",1693858,15.22,51.5,3.583,0.516,2.795,97.95869,-5.899,-4.639,96.5,0,109.2,13.73,-5.17,13.5
"2010-02-19 01:10:00",1693859,15.17,51.05,4.139,0.489,2.65,97.96146,-5.892,-4.641,96.5,0,109.2,13.74,-5.16,13.0
"2010-02-19 01:10:30",1693860,15.14,51.98,3.779,0.642,2.806,97.96145,-5.892,-4.634,96.5,0,109.2,13.74,-5.16,14.0
"2010-02-19 01:11:00",1693861,15.34,52.87,3.755,0.646,2.861,97.96086,-5.894,-4.641,96.5,0,109.2,13.74,-5.16,14.9
"2010-02-19 01:11:30",1693862,15.16,53.16,3.167,0.644,2.963,97.96003,-5.896,-4.643,96.5,0,109.2,13.74,-5.16,15.2
"2010-02-19 01:12:00",1693863,15.69,50.12,4.349,0.606,2.922,97.95518,-5.908,-4.646,96.5,0,109.2,13.74,-5.18,12.1
"2010-02-19 01:12:30",1693864,16.05,51.31,4.281,0.657,2.966,97.95176,-5.917,-4.64,96.5,0,109.2,13.74,-5.19,13.3
"2010-02-19 01:13:00",1693865,16.68,52.02,3.791,0.659,2.923,97.94918,-5.924,-4.648,96.5,0,109.2,13.74,-5.19,14.0
"2010-02-19 01:13:30",1693866,17.11,49.68,3.299,0.525,2.965,97.94974,-5.922,-4.659,96.4,0,109.2,13.74,-5.19,11.7
"2010-02-19 01:14:00",1693867,16.97,50.29,3.956,0.506,2.97,97.93869,-5.95,-4.691,96.4,0,109.2,13.74,-5.22,12.3
"2010-02-19 01:14:30",1693868,16.71,51.28,4.217,0.439,2.957,97.92334,-5.989,-4.703,96.4,0,109.2,13.74,-5.26,13.3
"2010-02-19 01:15:00",1693869,16.47,50.42,4.046,0.502,3.051,97.9185,-6.002,-4.704,96.4,0,109.2,13.74,-5.27,12.4
"2010-02-19 01:15:30",1693870,15.9,50.21,3.699,0.583,3.168,97.9157,-6.009,-4.73,96.3,0,109.2,13.74,-5.28,12.2
"2010-02-19 01:16:00",1693871,15.69,50.41,3.819,0.645,3.008,97.91682,-6.006,-4.752,96.3,0,109.2,13.74,-5.28,12.4
"2010-02-19 01:16:30",1693872,15.21,52.25,3.375,0.725,2.894,97.91653,-6.007,-4.744,96.3,0,109.2,13.74,-5.28,14.2
"2010-02-19 01:17:00",1693873,15.03,52.76,3.36,0.724,2.883,97.91792,-6.003,-4.76,96.3,0,109.2,13.74,-5.27,14.8
"2010-02-19 01:17:30",1693874,14.85,54.1,2.632,0.726,2.879,97.9157,-6.009,-4.76,96.3,0,109.2,13.74,-5.28,16.1
"2010-02-19 01:18:00",1693875,14.74,54.58,3.221,0.606,2.79,97.91682,-6.006,-4.769,96.3,0,109.2,13.74,-5.28,16.6
"2010-02-19 01:18:30",1693876,14.88,53.49,3.781,0.638,2.935,97.91764,-6.004,-4.733,96.3,0,109.2,13.74,-5.27,15.5
"2010-02-19 01:19:00",1693877,14.66,53.34,3.576,0.64,2.813,97.91737,-6.005,-4.75,96.3,0,109.2,13.74,-5.27,15.3
"2010-02-19 01:19:30",1693878,14.54,54.56,3.1,0.624,2.737,97.91682,-6.006,-4.764,96.3,0,109.2,13.74,-5.28,16.6
"2010-02-19 01:20:00",1693879,14.63,53.85,3.78,0.516,2.666,97.91626,-6.007,-4.764,96.3,0,109.2,13.74,-5.28,15.8
"2010-02-19 01:20:30",1693880,14.33,55.03,3.622,0.705,2.574,97.91682,-6.006,-4.755,96.3,0,109.2,13.74,-5.28,17.0
"2010-02-19 01:21:00",1693881,14.45,55.17,3.203,0.715,2.594,97.91599,-6.008,-4.769,96.3,0,109.2,13.74,-5.28,17.2
"2010-02-19 01:21:30",1693882,14.4,55.57,2.671,0.716,2.601,97.91599,-6.008,-4.765,96.2,0,109.2,13.73,-5.28,17.6
"2010-02-19 01:22:00",1693883,14.38,54.66,3.848,0.529,2.646,97.91567,-6.009,-4.776,96.2,0,109.2,13.74,-5.28,16.7
"2010-02-19 01:22:30",1693884,14.33,54.96,3.745,0.659,2.65,97.90971,-6.024,-4.748,96.2,0,109.2,13.74,-5.29,17.0
"2010-02-19 01:23:00",1693885,14.19,54.35,3.394,0.705,2.577,97.90321,-6.041,-4.77,96.2,0,109.2,13.73,-5.31,16.3
"2010-02-19 01:23:30",1693886,14.04,53.32,2.72,0.726,2.617,97.89358,-6.065,-4.788,96.2,0,109.2,13.74,-5.33,15.3
"2010-02-19 01:24:00",1693887,14.03,52.57,3.283,0.699,2.602,97.89185,-6.07,-4.79,96.2,0,109.2,13.74,-5.34,14.6
"2010-02-19 01:24:30",1693888,14.19,51.71,3.828,0.574,2.761,97.89071,-6.073,-4.769,96.2,0,109.2,13.74,-5.34,13.7
"2010-02-19 01:25:00",1693889,14.57,50.42,3.742,0.625,2.814,97.8887,-6.078,-4.781,96.2,0,109.2,13.74,-5.35,12.4
"2010-02-19 01:25:30",1693890,15.16,53.29,3.579,0.701,2.886,97.88927,-6.076,-4.786,96.2,0,109.2,13.74,-5.35,15.3
"2010-02-19 01:26:00",1693891,15.34,53.69,3.713,0.635,2.841,97.88557,-6.086,-4.801,96.2,0,109.2,13.74,-5.35,15.7
"2010-02-19 01:26:30",1693892,14.96,53.41,3.814,0.733,2.826,97.88472,-6.088,-4.796,96.2,0,109.2,13.74,-5.36,15.4
"2010-02-19 01:27:00",1693893,14.92,55.04,3.68,0.666,2.781,97.88555,-6.086,-4.804,96.2,0,109.2,13.74,-5.36,17.0
"2010-02-19 01:27:30",1693894,14.72,53.05,3.243,0.806,2.929,97.88583,-6.085,-4.802,96.2,0,109.2,13.74,-5.35,15.0
"2010-02-19 01:28:00",1693895,15.15,52.88,3.766,0.678,2.78,97.88694,-6.082,-4.797,96.1,0,109.2,13.74,-5.35,14.9
"2010-02-19 01:28:30",1693896,15.63,53.2,4.106,0.832,2.745,97.88527,-6.086,-4.802,96.2,0,109.2,13.74,-5.36,15.2
"2010-02-19 01:29:00",1693897,15.16,54.51,4.196,1.069,2.889,97.88472,-6.088,-4.812,96.1,0,109.2,13.74,-5.36,16.5
"2010-02-19 01:29:30",1693898,14.29,52.99,4.354,0.715,2.981,97.88694,-6.082,-4.821,96.1,0,109.2,13.74,-5.35,15.0
"2010-02-19 01:30:00",1693899,14.36,54.71,3.971,0.884,2.682,97.88832,-6.079,-4.815,96.1,0,109.2,13.74,-5.35,16.7
"2010-02-19 01:30:30",1693900,15.89,55.51,3.837,0.645,2.931,97.88721,-6.081,-4.815,96.1,0,109.2,13.74,-5.35,17.5
"2010-02-19 01:31:00",1693901,15.61,53.12,4.25,0.779,2.809,97.88638,-6.084,-4.837,96.1,0,109.2,13.74,-5.35,15.1
"2010-02-19 01:31:30",1693902,14.51,53.96,3.859,0.876,2.716,97.88667,-6.083,-4.838,96.1,0,109.2,13.74,-5.35,16.0
"2010-02-19 01:32:00",1693903,14.98,53.02,3.877,0.734,2.739,97.88721,-6.081,-4.843,96.1,0,109.2,13.74,-5.35,15.0
"2010-02-19 01:32:30",1693904,14.94,53.98,3.335,0.741,2.73,97.88777,-6.08,-4.823,96.1,0,109.2,13.74,-5.35,16.0
"2010-02-19 01:33:00",1693905,15.09,53.92,3.217,0.716,2.747,97.8886,-6.078,-4.839,96.1,0,109.2,13.74,-5.35,15.9
"2010-02-19 01:33:30",1693906,14.6,54.67,2.367,0.756,2.757,97.8886,-6.078,-4.829,96.1,0,109.2,13.75,-5.35,16.7
"2010-02-19 01:34:00",1693907,14.72,55.76,3.217,0.628,2.659,97.88721,-6.081,-4.846,96.1,0,109.2,13.75,-5.35,17.8
"2010-02-19 01:34:30",1693908,14.79,56.03,4.117,0.648,2.516,97.88235,-6.094,-4.824,96.1,0,109.2,13.75,-5.36,18.0
"2010-02-19 01:35:00",1693909,14.41,55.68,4.022,0.662,2.542,97.86962,-6.126,-4.848,96.1,0,109.2,13.75,-5.40,17.7
"2010-02-19 01:35:30",1693910,14.67,53.82,3.749,0.525,2.522,97.86903,-6.128,-4.84,96.1,0,109.2,13.75,-5.40,15.8
"2010-02-19 01:36:00",1693911,14.9,52.45,3.922,0.495,2.483,97.86082,-6.149,-4.855,96.1,0,109.2,13.75,-5.42,14.5
"2010-02-19 01:36:30",1693912,15.03,52.32,3.174,0.726,2.435,97.85485,-6.164,-4.857,96.1,0,109.2,13.75,-5.43,14.3
"2010-02-19 01:37:00",1693913,15.08,51.93,3.039,0.715,2.446,97.85457,-6.164,-4.887,96,0,109.2,13.75,-5.43,13.9
"2010-02-19 01:37:30",1693914,15.15,51.58,3.095,0.726,2.637,97.85513,-6.163,-4.907,96,0,109.2,13.75,-5.43,13.6
"2010-02-19 01:38:00",1693915,15.21,51.54,2.378,0.737,2.362,97.85172,-6.172,-4.927,96,0,109.2,13.75,-5.44,13.5
"2010-02-19 01:38:30",1693916,15.19,52.1,2.927,0.77,2.309,97.84633,-6.185,-4.907,96,0,109.2,13.75,-5.46,14.1
"2010-02-19 01:39:00",1693917,15.28,51.12,3.341,0.727,2.302,97.84633,-6.185,-4.937,96,0,109.2,13.75,-5.46,13.1
"2010-02-19 01:39:30",1693918,15.54,51.25,3.844,0.637,2.511,97.84917,-6.178,-4.928,96,0,109.2,13.75,-5.45,13.2
"2010-02-19 01:40:00",1693919,15.96,52.07,2.556,0.693,2.224,97.85114,-6.173,-4.933,96,0,109.2,13.75,-5.44,14.1
"2010-02-19 01:40:30",1693920,15.94,51.5,3.145,0.72,2.181,97.84575,-6.187,-4.932,96,0,109.2,13.75,-5.46,13.5
"2010-02-19 01:41:00",1693921,15.91,52.17,3.158,0.726,2.431,97.83838,-6.206,-4.941,96,0,109.2,13.75,-5.48,14.2
"2010-02-19 01:41:30",1693922,16.14,51.48,2.493,0.7,2.46,97.83753,-6.208,-4.922,96,0,109.2,13.75,-5.48,13.5
"2010-02-19 01:42:00",1693923,16.24,50.81,3.149,0.609,2.396,97.83214,-6.222,-4.955,96,0,109.2,13.75,-5.49,12.8
"2010-02-19 01:42:30",1693924,16.18,51.11,2.54,0.817,2.274,97.82816,-6.232,-4.942,96,0,109.2,13.75,-5.50,13.1
"2010-02-19 01:43:00",1693925,15.48,53.8,4.391,0.964,2.263,97.82165,-6.248,-4.958,96,0,109.2,13.75,-5.52,15.8
"2010-02-19 01:43:30",1693926,15.71,52.87,3.115,0.778,2.387,97.82165,-6.248,-4.992,96,0,109.2,13.75,-5.52,14.9
"2010-02-19 01:44:00",1693927,15.69,51.98,2.655,0.721,2.237,97.82165,-6.248,-4.996,96,0,109.2,13.75,-5.52,14.0
"2010-02-19 01:44:30",1693928,15.49,51.73,2.511,0.819,2.199,97.82165,-6.248,-4.976,96,0,109.2,13.75,-5.52,13.7
"2010-02-19 01:45:00",1693929,15.71,52.15,2.636,0.795,2.054,97.82022,-6.252,-5.001,96,0,109.2,13.75,-5.52,14.2
"2010-02-19 01:45:30",1693930,15.41,52.99,1.636,0.795,2.172,97.81002,-6.278,-5.005,95.9,0,109.2,13.75,-5.55,15.0
"2010-02-19 01:46:00",1693931,15.36,53.21,3.261,0.62,2.165,97.80037,-6.302,-5,95.9,0,109.2,13.75,-5.57,15.2
"2010-02-19 01:46:30",1693932,14.95,53.58,3.729,0.632,2.204,97.79414,-6.318,-5.022,95.9,0,109.2,13.76,-5.59,15.6